FLOCK 4Q 22

导读

FLOCK 4Q 22是美国Planet公司研制发射的SuperDove商业遥感立方体卫星,属于Flock鸽群星座,于2023年11月11日发射升空。作为PlanetScope星座的组成部分,该卫星运行在近地轨道,具备多光谱成像能力,可提供米级高分辨率对地观测数据。它将进一步增强星座 daily重访能力,助力全球土地监测、农业管理、城市规划与环境变化追踪等领域应用,延续Planet公司构建全球持续对地观测网络的布局。

基本信息
目录编号:
58306
目录名称:
FLOCK 4Q 22
国际标识:
2023-174BC
轨道中心:
EARTH
卫星名称:
FLOCK 4Q 22
卫星全名:
--
卫星状态:
在轨 (已飞行943 天)
发射日期:
2023-11-11 UTC
国别 :
美国 (US)
星等 :
--
轨道信息
数据来源 国际轨道数据
星历时间: 2026-06-11T12:40:04+0800
15小时前
查看轨道信息
半长轴: 6767.244km
偏心率: 0.0005532
轨道倾角: 97.382°
近地点辐角 160.972°
升交点赤经 254.242°
平近点角 199.174°
近地点: 385.363km
远地点: 392.851km
周期: 92.337分钟
每日圈数: 15.59499
详细信息
使用方式:
暂无
2D轨道图
3D轨道图
轨道高度分析图
轨道倾角分析图
轨道综合分析图
查看轨道综合分析图